Terug naar catalogus

STARLINK-30904

ActiefCommunicatieVLEO
NORAD 58364·PAYLOAD·🇺🇸 United States

Gelanceerd Nov 18, 2023 vanaf Cape Canaveral Space Force Station

Loading…

Volgende Passages (komende 24 uur)

TLE

VersSource: CelesTrak SupGP

Epoch: Sep 14, 2026, 22:36 UTC

1 58364C 23177P   26257.94215278  .00021816  00000+0  12347-2 0  2579
2 58364  43.0008  31.2514 0013350 290.1227 137.9300 15.12192133    16

Volg STARLINK-30904 in realtime met AllMySat

Download on the App Store